Location: Unspecified
(0.0000°N, 0.0000°E)
Time: 18:59:40
(UTC+00:00)

SRMSAT - Pass Details

Date: 02 June 2020
Orbit: 848 x 866 km, 20.0° (Epoch: 06 July)

Event Time Altitude Azimuth Distance (km) Brightness Sun altitude
Rises 20:50:35 0° 314° (NW) 3,388 ? -39.2°
Reaches altitude 10° 20:53:59 10° 333° (NNW) 2,455 ? -39.9°
Enters shadow 20:55:33 15° 347° (NNW) 2,145 ? -40.3°
